Погода Батамай

Поиск расширенной информации на нашем сайте:

Полезная информация:

Новости сайта



02.01.2020
Опубликован Долгосрочный прогноз погоды по городам России и ближнего зарубежья на январь 2020 года.
Карты: Прогноз на январь и февраль 2020 года, Сравнение прогнозируемой аномалии приземной температуры воздуха на январь 2020 года по разным моделям.




Погода Батамай - сегодня

Время (UTC), дата Ветер
(°,м/с) 
Видим.   Явления Облачность Т
(°С)
Тd
(°С)
f(%) Тe
(°С)
Pmin
(гПа)
dP
(гПа)
Po
(мм)
O2
(г/м3)
Тmin Tmax R s Состояние
почвы
09 23.11.20 тихо ()   20000 м    ясно 
-34.2 -36.5 79 -34  1009.8  0.4  749  347           
12 23.11.20 тихо ()   20000 м    ясно 
-35.4 -37.7 79 -35  1009.9  0.1  749  349    -27.6       
15 23.11.20 тихо ()   20000 м    ясно 
-37.1 -39.5 78 -37  1010  0.1  749  351           
18 23.11.20 340 (С) 20000 м    ясно 
-38.3 -40.3 81 -39  1010.9  0.7  749  353           
21 23.11.20 020 (С) 20000 м    ясно 
-37.8 -39.9 81 -39  1011.4  0.5  750  353           
00 24.11.20 020 (С) 20000 м    10/0 верхняя 
[Cs]
-37.4 -39.5 81 -38  1012.1  0.9  750  352  -38.8      27  равномерный
сухой снег
100% 
15 24.11.20 тихо ()   20000 м  слаб. снег  10/0 верхняя 
[Cs]
-27.3 -29.2 84 -27  1017  0.6  754  340           
18 24.11.20 тихо ()   20000 м  {снег}  3/0 верхняя 
[Ci fib]
-31.2 -33.6 79 -31  1018  0.8  755  345           
21 24.11.20 тихо ()   20000 м    ясно 
-35.2 -37.4 80 -35  1018.3  755  351           
00 25.11.20 тихо ()   20000 м    3/0 верхняя 
[Ci fib]
-36.4 -38.8 78 -36  1017.6  -0.7  755  353  -36.8    0.2  27  равномерный
сухой снег
100% 
03 25.11.20 тихо ()   20000 м    10/0 средняя, верхняя 
[Ac trans|Ci fib]
-34.7 -37.1 79 -35  1016.7  -0.9  754  350           
06 25.11.20 040 (СВ) 20000 м    10/0 средняя, верхняя 
[Ac trans|Cs]
-30.6 -33 79 -31  1016.4  754  344           
09 25.11.20 030 (СВ) 20000 м    10/0 средняя 
[Ac As]
-29.1 -31.6 79 -30  1018.1  1.7  755  342           
12 25.11.20 050 (СВ) 20000 м    10/0 средняя, верхняя 
[Ac trans|Cs]
-30 -32.4 80 -31  1019.4  1.3  756  344    -29.1       
15 25.11.20 тихо ()   20000 м    10/0 верхняя 
[Cs]
-31.1 -33.4 80 -31  1019.9  0.5  756  346           
18 25.11.20 тихо ()   20000 м    10/0 верхняя 
[Cs]
-30.9 -33.2 80 -31  1020.2  0.3  757  346           
21 25.11.20 тихо ()   20000 м    10/0 верхняя 
[Cs]
-29.5 -32 79 -30  1020.4  0.2  757  344           
00 26.11.20 тихо ()   20000 м    9/0 средняя, верхняя 
[Ac trans|Ci fib]
-30.5 -33 79 -31  1020.4  757  345  -31.4      27  равномерный
сухой снег
100% 
03 26.11.20 280 (З) 20000 м    9/0 средняя, верхняя 
[Ac trans|Ci fib]
-28.5 -30.4 84 -29  1020.1  -0.3  757  342           
06 26.11.20 260 (З) 20000 м    10/0 верхняя 
[Cs]
-23.3 -25.8 80 -28  1021.8  1.9  758  336           
09 26.11.20 280 (З) 20000 м    3/0 верхняя 
[Ci fib]
-24.4 -26.9 80 -28  1023.1  1.3  759  338           
12 26.11.20 210 (ЮЗ) 20000 м    3/0 верхняя 
[Ci fib]
-25.9 -27.8 84 -31  1023.6  0.5  759  340    -23.3       
15 26.11.20 260 (З) 20000 м    3/0 верхняя 
[Ci fib]
-25.8 -28.3 79 -31  1023.3  -0.3  759  340           
18 26.11.20 260 (З) 20000 м    3/0 верхняя 
[Ci fib]
-26.8 -29.3 79 -32  1023.2  -0.1  759  341           
21 26.11.20 250 (З) 20000 м    1/0 верхняя 
[Ci fib]
-27.6 -30 80 -33  1022.9  -0.5  759  342           
Время (UTC), дата Ветер
(°,м/с) 
Видим.   Явления Облачность Т
(°С)
Тd
(°С)
f(%) Тe
(°С)
Pmin
(гПа)
dP
(гПа)
Po
(мм)
O2
(г/м3)
Тmin Tmax R s Состояние
почвы

Для получения пояснительной информации подведите курсор к названию столбца.

ПОГОДА Батамай - архив

Всё, что Вы хотите узнать о погоде Батамай - удобно и подробно!

Выберите нужную дату (начиная с 1 января 2019* года) и нажмите кнопку "Найти".
Будут отображены архивные сводки погоды по пункту Батамай, начиная с указанной даты.


Отображать данные в формате CSV (для использования в таблицах Excel)


Внимание! Наш архив погоды предназначен исключительно для личного некоммерческого использования в познавательных целях. Если Вам необходимы официальные справки о состоянии погоды (для производственных, юридических, коммерческих и т.п. целей), обращайтесь в органы Росгидромета.

*Примечание: данная дата относится к архиву по метеостанциям СССР (Россия, СНГ, Балтия).
Архив по метеостанциям Зарубежной Европы и Азии (кроме Китая) хранится 10 дней, по другим регионам земного шара (Китай, Африка, Америка, Австралия, Океания) - 1 день.

Батамай - район местоположения метеостанции


Название, широта, долгота, высота метеостанции:
Батамай 63.5°ш. 129.5°д. 79 м над ур. моря [Российская Федерация]

Дополнительная информация

В oтличие oт бoльшинства пoгoдных сайтoв мы публикуем пoдрoбную метеoинфoрмацию в детальнoм прoфессиoнальнoм фoрмате.

Характеристики температуры и влажнoсти вoздуха измеряются на высoте 2 м в тени вдали oт зданий и деревьев.
Скoрoсть ветра измеряется на высoте 10 м (на урoвне рoста челoвека скoрoсть ветра ниже в 1.5-2 раза). Если метеoстанция нахoдится в гoрoде или в лесу, тo скoрoсть ветра занижена на 2-4 м/с пo сравнению с oткрытым местoм. Скoрoсть ветра над акватoриями крупных рек и oзёр, а также на вершинах хoлмoв на 2-5 м/с выше, чем в oбычных услoвиях.
Атмoсфернoе давление в разных тoчках местнoсти мoжет значительнo oтличаться oт давления на метеoстанции, в зависимoсти oт услoвий рельефа (при пoдъёме на 10 м давление пoнижается примернo на 1 мм рт.ст.).